Location: Andiroba
(19.8650°S, 43.9258°W)
Time: 01:03:32
(UTC+00:00)

Cosmos 614 Rocket - Pass Details

Date: 15 June 2024
Orbit: 731 x 760 km, 74.1° (Epoch: 24 July)

Event Time Altitude Azimuth Distance (km) Brightness Sun altitude
Rises 08:36:08 0° 340° (NNW) 3,144 7.2 -12.2°
Reaches altitude 10° 08:38:29 10° 336° (NNW) 2,226 6.4 -11.6°
Maximum altitude 08:43:28 62° 255° (WSW) 822 3.9 -10.5°
Drops below altitude 10° 08:48:29 10° 174° (S) 2,245 6.3 -9.4°
Sets 08:50:53 0° 171° (S) 3,173 7.1 -8.9°
